Tracking 25953 objects as of 16-Aug-2022
HD Live streaming from Space Station
objects crossing your sky now

COSMOS 1859

Track COSMOS 1859 now!
10-day predictions
COSMOS 1859 is classified as:


NORAD ID: 18120
Int'l Code: 1987-051H
Perigee: 1,394.0 km
Apogee: 1,483.4 km
Inclination: 74.0 °
Period: 114.5 minutes
Semi major axis: 7809 km
RCS: 0.6713 m2 (medium)
Launch date: June 16, 1987
Source: Commonwealth of Independent States (former USSR) (CIS)
Launch site: PLESETSK MISSILE AND SPACE COMPLEX (PKMTR)
aabbcc
Your satellite tracking list
Your tracking list is empty




NASA's NSSDC Master Catalog

Two Line Element Set (TLE):
1 18120U 87051H   22227.42655277  .00000002  00000-0  10994-3 0  9994
2 18120  74.0034 113.8820 0057241 344.2047 127.7555 12.57918628614730
Source of the keplerian elements: AFSPC